Weather History for KCKC - November, 2012

Change the Weather History Date:

Monday, November 5, 2012

  Actual Average Record
Temperature  
Mean Temperature 27 °F -  
Max Temperature 30 °F 35 °F 64 °F (2016)
Min Temperature 24 °F 24 °F 17 °F (1997)
Degree Days  
Heating Degree Days 38    
Moisture  
Dew Point 20 °F    
Average Humidity 74    
Maximum Humidity 86    
Minimum Humidity 64    
Precipitation  
Precipitation 0.00 in - - ()
Sea Level Pressure  
Sea Level Pressure 30.14 in    
Wind  
Wind Speed 3 mph (SE)    
Max Wind Speed 7 mph    
Max Gust Speed -    
Visibility 10 miles    
Events      
Averages and records for this station are not official NWS values.
T = Trace of Precipitation, MM = Missing Value Source: NWS Daily Summary

Daily Weather History Graph

Daily Weather History Graph

Search for Another Location

Airport or City:

Trip Planner

Search our weather history database for the weather conditions in past years. The results will help you decide how hot, cold, wet, or windy it might be!

Date:

Astronomy

Nov. 05, 2012 Rise Set
Actual Time 6:52 AM CST 4:36 PM CST
Civil Twilight 6:20 AM CST 5:09 PM CST
Nautical Twilight 5:43 AM CST 5:46 PM CST
Astronomical Twilight 5:07 AM CST 6:22 PM CST
Moon 10:14 PM CST (11/5) 12:13 PM CST (11/5)
Length of Visible Light 10h 49m
Length of Day
9h 43m
Waning Gibbous, 62% of the Moon is Illuminated
Nov 5
Waning Gibbous
Nov 6
Last Quarter
Nov 13
New
Nov 20
First Quarter
Nov 28
Full

Hourly Weather History & Observations

Time (CST) Temp. Windchill Dew Point Humidity Pressure Visibility Wind Dir Wind Speed Gust Speed Precip Events Conditions
12:13 AM 24.8 °F 20.5 °F 17.6 °F 74% 30.25 in 10.0 mi North 3.5 mph - N/A   Overcast
12:33 AM 24.8 °F 20.5 °F 17.6 °F 74% 30.25 in 10.0 mi North 3.5 mph - N/A   Overcast
12:54 AM 24.8 °F 19.1 °F 17.6 °F 74% 30.25 in 10.0 mi North 4.6 mph - N/A   Overcast
1:14 AM 24.8 °F 19.1 °F 17.6 °F 74% 30.25 in 10.0 mi NNE 4.6 mph - N/A   Overcast
1:33 AM 24.8 °F 20.5 °F 17.6 °F 74% 30.25 in 10.0 mi North 3.5 mph - N/A   Overcast
1:53 AM 24.8 °F - 17.6 °F 74% 30.25 in 10.0 mi Calm Calm - N/A   Overcast
2:14 AM 24.8 °F 20.5 °F 17.6 °F 74% 30.25 in 10.0 mi North 3.5 mph - N/A   Overcast
2:33 AM 24.8 °F - 17.6 °F 74% 30.25 in 10.0 mi Calm Calm - N/A   Overcast
2:54 AM 24.8 °F - 17.6 °F 74% 30.24 in 10.0 mi Calm Calm - N/A   Overcast
3:13 AM 24.8 °F 20.5 °F 17.6 °F 74% 30.24 in 10.0 mi NNW 3.5 mph - N/A   Overcast
3:33 AM 24.8 °F 20.5 °F 17.6 °F 74% 30.24 in 10.0 mi NW 3.5 mph - N/A   Overcast
3:54 AM 24.8 °F - 17.6 °F 74% 30.23 in 10.0 mi Calm Calm - N/A   Overcast
4:14 AM 24.8 °F - 17.6 °F 74% 30.24 in 10.0 mi Calm Calm - N/A   Overcast
4:33 AM 24.8 °F - 17.6 °F 74% 30.23 in 10.0 mi Calm Calm - N/A   Overcast
4:54 AM 24.8 °F - 17.6 °F 74% 30.23 in 10.0 mi Calm Calm - N/A   Overcast
5:13 AM 24.8 °F - 17.6 °F 74% 30.23 in 10.0 mi Calm Calm - N/A   Overcast
5:34 AM 24.8 °F - 17.6 °F 74% 30.23 in 10.0 mi Calm Calm - N/A   Overcast
6:13 AM 24.8 °F 19.1 °F 17.6 °F 74% 30.23 in 10.0 mi NNW 4.6 mph - N/A   Overcast
6:34 AM 24.8 °F - 17.6 °F 74% 30.22 in 10.0 mi Calm Calm - N/A   Overcast
6:54 AM 24.8 °F 20.5 °F 17.6 °F 74% 30.22 in 10.0 mi North 3.5 mph - N/A   Overcast
7:13 AM 24.8 °F - 17.6 °F 74% 30.22 in 10.0 mi Calm Calm - N/A   Overcast
7:34 AM 24.8 °F - 17.6 °F 74% 30.22 in 10.0 mi Calm Calm - N/A   Overcast
7:54 AM 24.8 °F - 19.4 °F 80% 30.22 in 10.0 mi Calm Calm - N/A   Overcast
8:13 AM 24.8 °F - 19.4 °F 80% 30.22 in 10.0 mi Calm Calm - N/A   Overcast
8:34 AM 26.6 °F 22.6 °F 19.4 °F 74% 30.22 in 10.0 mi NNE 3.5 mph - N/A   Overcast
8:53 AM 26.6 °F - 19.4 °F 74% 30.21 in 10.0 mi Calm Calm - N/A   Overcast
9:13 AM 26.6 °F - 19.4 °F 74% 30.21 in 10.0 mi Calm Calm - N/A   Overcast
9:33 AM 26.6 °F - 19.4 °F 74% 30.21 in 10.0 mi Calm Calm - N/A   Overcast
9:54 AM 28.4 °F - 19.4 °F 69% 30.21 in 10.0 mi Calm Calm - N/A   Overcast
10:13 AM 28.4 °F - 19.4 °F 69% 30.21 in 10.0 mi Calm Calm - N/A   Overcast
10:33 AM 28.4 °F - 19.4 °F 69% 30.21 in 10.0 mi Calm Calm - N/A   Overcast
10:54 AM 28.4 °F - 19.4 °F 69% 30.20 in 10.0 mi Calm Calm - N/A   Overcast
11:13 AM 28.4 °F - 19.4 °F 69% 30.20 in 10.0 mi Calm Calm - N/A   Overcast
11:34 AM 30.2 °F - 21.2 °F 69% 30.19 in 10.0 mi Calm Calm - N/A   Overcast
11:53 AM 30.2 °F 23.4 °F 21.2 °F 69% 30.18 in 10.0 mi South 6.9 mph - N/A   Overcast
12:14 PM 30.2 °F 23.4 °F 21.2 °F 69% 30.17 in 10.0 mi South 6.9 mph - N/A   Overcast
12:33 PM 30.2 °F 24.3 °F 19.4 °F 64% 30.16 in 10.0 mi South 5.8 mph - N/A   Overcast
12:53 PM 30.2 °F 26.7 °F 19.4 °F 64% 30.15 in 10.0 mi South 3.5 mph - N/A   Overcast
1:14 PM 30.2 °F 25.4 °F 21.2 °F 69% 30.15 in 10.0 mi SSE 4.6 mph - N/A   Overcast
1:33 PM 30.2 °F 23.4 °F 21.2 °F 69% 30.14 in 10.0 mi SSE 6.9 mph - N/A   Overcast
1:53 PM 28.4 °F 23.3 °F 24.8 °F 86% 30.13 in 1.8 mi South 4.6 mph - N/A   Overcast
2:14 PM 28.4 °F 23.3 °F 21.2 °F 74% 30.12 in 10.0 mi SSE 4.6 mph - N/A   Overcast
2:33 PM 30.2 °F 23.4 °F 21.2 °F 69% 30.12 in 10.0 mi SSE 6.9 mph - N/A   Overcast
2:53 PM 28.4 °F 23.3 °F 21.2 °F 74% 30.11 in 10.0 mi South 4.6 mph - N/A   Overcast
3:14 PM 28.4 °F 23.3 °F 21.2 °F 74% 30.09 in 10.0 mi SSE 4.6 mph - N/A   Overcast
3:33 PM 28.4 °F 22.2 °F 21.2 °F 74% 30.09 in 10.0 mi South 5.8 mph - N/A   Overcast
3:53 PM 28.4 °F 21.2 °F 21.2 °F 74% 30.08 in 10.0 mi SSE 6.9 mph - N/A   Overcast
4:14 PM 28.4 °F 23.3 °F 21.2 °F 74% 30.08 in 10.0 mi South 4.6 mph - N/A   Overcast
4:33 PM 28.4 °F 23.3 °F 21.2 °F 74% 30.08 in 10.0 mi SSE 4.6 mph - N/A   Overcast
4:54 PM 28.4 °F 24.6 °F 21.2 °F 74% 30.08 in 10.0 mi SSE 3.5 mph - N/A   Overcast
5:13 PM 28.4 °F 23.3 °F 21.2 °F 74% 30.07 in 10.0 mi South 4.6 mph - N/A   Overcast
5:33 PM 28.4 °F 22.2 °F 21.2 °F 74% 30.07 in 10.0 mi South 5.8 mph - N/A   Overcast
5:54 PM 28.4 °F - 21.2 °F 74% 30.06 in 10.0 mi Calm Calm - N/A   Overcast
6:14 PM 28.4 °F 23.3 °F 21.2 °F 74% 30.06 in 10.0 mi SSE 4.6 mph - N/A   Overcast
6:33 PM 28.4 °F 23.3 °F 19.4 °F 69% 30.05 in 10.0 mi ESE 4.6 mph - N/A   Overcast
6:54 PM 26.6 °F - 19.4 °F 74% 30.04 in 10.0 mi Calm Calm - N/A   Overcast
7:14 PM 26.6 °F 22.6 °F 19.4 °F 74% 30.03 in 10.0 mi ESE 3.5 mph - N/A   Overcast
7:33 PM 26.6 °F 22.6 °F 19.4 °F 74% 30.02 in 10.0 mi ESE 3.5 mph - N/A   Overcast
7:54 PM 26.6 °F 22.6 °F 21.2 °F 80% 30.01 in 10.0 mi ESE 3.5 mph - N/A   Overcast
8:13 PM 26.6 °F - 21.2 °F 80% 30.00 in 10.0 mi Calm Calm - N/A   Overcast
8:34 PM 26.6 °F 22.6 °F 21.2 °F 80% 29.99 in 10.0 mi SE 3.5 mph - N/A   Overcast
8:53 PM 28.4 °F 24.6 °F 21.2 °F 74% 29.99 in 10.0 mi SE 3.5 mph - N/A   Overcast
9:13 PM 28.4 °F 23.3 °F 21.2 °F 74% 29.99 in 10.0 mi SE 4.6 mph - N/A   Overcast
9:33 PM 28.4 °F 21.2 °F 23.0 °F 80% 29.98 in 10.0 mi SE 6.9 mph - N/A   Overcast
9:54 PM 28.4 °F 23.3 °F 23.0 °F 80% 29.97 in 10.0 mi SE 4.6 mph - N/A   Overcast
10:13 PM 28.4 °F 22.2 °F 23.0 °F 80% 29.96 in 10.0 mi SSE 5.8 mph - N/A   Overcast
10:33 PM 28.4 °F 23.3 °F 23.0 °F 80% 29.95 in 10.0 mi SSE 4.6 mph - N/A   Overcast
10:54 PM 28.4 °F 22.2 °F 23.0 °F 80% 29.93 in 10.0 mi SE 5.8 mph - N/A   Overcast
11:13 PM 28.4 °F 23.3 °F 23.0 °F 80% 29.93 in 10.0 mi SE 4.6 mph - N/A   Overcast
11:33 PM 28.4 °F 24.6 °F 24.8 °F 86% 29.92 in 10.0 mi ESE 3.5 mph - N/A   Overcast
11:54 PM 28.4 °F 23.3 °F 24.8 °F 86% 29.91 in 10.0 mi ESE 4.6 mph - N/A   Overcast